QPF
0.00 0.00 0.00 0.00 0.00 0.00 0.00 0.01 0.03 0.11 0.08 0.13 0.02 0.01 0.01 0.01 0.01 0.01 0.04 0.03 0.02 0.00 0.00 0.00 0.00 0.00 0.00 0.00 0.00 0.00 0.00 0.00 0.00 0.00 0.00 0.00 0.00 0.00 0.00 0.00 0.00 0.00 0.00
0.00 0.00 0.00 0.00 0.00 0.00 0.00 0.00 0.02 0.05 0.05 0.06 0.05 0.02 0.01 0.04 0.08 0.05 0.01 0.02 0.02 0.00 0.00 0.00 0.00 0.00 0.00 0.00 0.00 0.00 0.00 0.00 0.00 0.00 0.00 0.00 0.00 0.00 0.00 0.00 0.00 0.00 0.00
0.00 0.01 0.01 0.03 0.00 0.00 0.00 0.00 0.00 0.03 0.06 0.03 0.05 0.05 0.09 0.07 0.14 0.07 0.03 0.02 0.02 0.00 0.01 0.00 0.00 0.00 0.01 0.02 0.02 0.01 0.00 0.00 0.00 0.00 0.00 0.00 0.00 0.00 0.00 0.00 0.00 0.00 0.00
0.03 0.05 0.07 0.10 0.05 0.01 0.00 0.00 0.00 0.00 0.03 0.08 0.06 0.05 0.05 0.05 0.14 0.10 0.05 0.05 0.01 0.00 0.01 0.00 0.00 0.00 0.02 0.03 0.03 0.03 0.03 0.00 0.00 0.00 0.01 0.00 0.00 0.00 0.00 0.00 0.00 0.00 0.00
0.07 0.07 0.10 0.12 0.11 0.11 0.11 0.04 0.01 0.01 0.00 0.02 0.06 0.05 0.05 0.07 0.27 0.33 0.27 0.19 0.12 0.06 0.01 0.00 0.01 0.14 0.09 0.02 0.02 0.01 0.03 0.01 0.01 0.00 0.00 0.00 0.00 0.00 0.00 0.00 0.00 0.00 0.00
0.00 0.00 0.02 0.10 0.18 0.21 0.25 0.24 0.16 0.09 0.04 0.03 0.04 0.08 0.11 0.10 0.27 0.11 0.09 0.06 0.25 0.18 0.08 0.07 0.15 0.14 0.11 0.09 0.04 0.00 0.00 0.01 0.01 0.01 0.00 0.00 0.01 0.01 0.00 0.04 0.04 0.01 0.00
0.00 0.00 0.01 0.03 0.10 0.14 0.20 0.25 0.24 0.20 0.14 0.08 0.06 0.07 0.10 0.11 0.05 0.00 0.00 0.02 0.07 0.08 0.09 0.11 0.14 0.14 0.03 0.03 0.02 0.00 0.02 0.03 0.04 0.03 0.01 0.06 0.03 0.07 0.02 0.01 0.01 0.01 0.01
0.00 0.01 0.01 0.01 0.07 0.11 0.13 0.14 0.13 0.13 0.13 0.07 0.06 0.04 0.00 0.00 0.00 0.00 0.06 0.04 0.02 0.05 0.04 0.01 0.02 0.00 0.00 0.00 0.00 0.00 0.01 0.01 0.04 0.03 0.03 0.03 0.02 0.01 0.00 0.00 0.01 0.02 0.01
0.03 0.00 0.00 0.00 0.00 0.00 0.01 0.05 0.04 0.04 0.05 0.04 0.02 0.00 0.00 0.00 0.00 0.03 0.13 0.06 0.01 0.05 0.02 0.00 0.00 0.00 0.00 0.00 0.00 0.00 0.00 0.00 0.00 0.00 0.00 0.00 0.00 0.00 0.00 0.00 0.03 0.03 0.03
0.01 0.00 0.00 0.00 0.01 0.00 0.01 0.01 0.02 0.00 0.01 0.00 0.00 0.00 0.00 0.00 0.00 0.01 0.04 0.05 0.01 0.00 0.00 0.00 0.00 0.00 0.00 0.00 0.00 0.00 0.00 0.00 0.00 0.00 0.00 0.00 0.00 0.00 0.00 0.01 0.02 0.02 0.01
0.00 0.00 0.00 0.00 0.00 0.00 0.01 0.01 0.00 0.00 0.00 0.00 0.00 0.00 0.00 0.00 0.00 0.00 0.01 0.01 0.01 0.00 0.00 0.00 0.00 0.00 0.00 0.00 0.00 0.00 0.00 0.00 0.00 0.00 0.00 0.00 0.00 0.00 0.00 0.00 0.00 0.00 0.00
0.00 0.01 0.00 0.00 0.00 0.00 0.00 0.00 0.00 0.00 0.00 0.00 0.00 0.00 0.00 0.00 0.00 0.00 0.00 0.00 0.00 0.00 0.00 0.00 0.00 0.00 0.00 0.00 0.00 0.00 0.00 0.00 0.00 0.00 0.00 0.00 0.00 0.00 0.00 0.00 0.00 0.00 0.00
0.01 0.01 0.01 0.01 0.01 0.00 0.00 0.00 0.00 0.00 0.00 0.00 0.00 0.00 0.00 0.00 0.00 0.00 0.00 0.00 0.00 0.00 0.00 0.00 0.00 0.00 0.00 0.00 0.00 0.00 0.00 0.00 0.00 0.00 0.00 0.00 0.00 0.00 0.00 0.00 0.00 0.00 0.00
0.01 0.02 0.02 0.02 0.01 0.00 0.00 0.00 0.00 0.00 0.00 0.00 0.00 0.00 0.00 0.00 0.00 0.00 0.00 0.00 0.00 0.00 0.00 0.00 0.00 0.00 0.00 0.00 0.00 0.00 0.00 0.00 0.00 0.00 0.00 0.00 0.00 0.00 0.00 0.00 0.00 0.00 0.00
0.01 0.02 0.02 0.01 0.02 0.01 0.01 0.00 0.00 0.00 0.00 0.00 0.00 0.00 0.00 0.00 0.00 0.00 0.00 0.00 0.00 0.00 0.00 0.00 0.00 0.00 0.00 0.00 0.00 0.00 0.00 0.00 0.00 0.00 0.00 0.00 0.00 0.00 0.00 0.00 0.00 0.00 0.00
0.00 0.00 0.01 0.01 0.01 0.00 0.00 0.00 0.00 0.00 0.00 0.00 0.00 0.00 0.00 0.00 0.00 0.00 0.00 0.00 0.00 0.00 0.00 0.00 0.00 0.00 0.00 0.00 0.00 0.00 0.00 0.00 0.00 0.00 0.00 0.00 0.00 0.00 0.00 0.00 0.00 0.00 0.00
0.00 0.00 0.00 0.00 0.00 0.00 0.00 0.00 0.00 0.00 0.00 0.00 0.00 0.00 0.00 0.00 0.00 0.00 0.00 0.00 0.00 0.00 0.00 0.00 0.00 0.00 0.00 0.00 0.00 0.00 0.00 0.00 0.00 0.00 0.00 0.00 0.00 0.00 0.00 0.00 0.00 0.00 0.00
0.00 0.00 0.00 0.00 0.00 0.00 0.00 0.00 0.00 0.00 0.00 0.00 0.00 0.00 0.00 0.00 0.00 0.00 0.00 0.00 0.00 0.00 0.00 0.00 0.00 0.00 0.00 0.00 0.00 0.00 0.00 0.00 0.00 0.00 0.00 0.00 0.00 0.00 0.00 0.00 0.00 0.00 0.00
0.00 0.00 0.00 0.00 0.00 0.00 0.00 0.00 0.00 0.00 0.00 0.00 0.00 0.00 0.00 0.00 0.00 0.00 0.00 0.00 0.00 0.00 0.00 0.00 0.00 0.00 0.00 0.00 0.00 0.00 0.00 0.00 0.00 0.00 0.00 0.00 0.00 0.00 0.00 0.00 0.00 0.00 0.00
0.00 0.00 0.00 0.00 0.00 0.00 0.00 0.00 0.00 0.00 0.00 0.00 0.00 0.00 0.00 0.00 0.00 0.00 0.00 0.00 0.00 0.00 0.00 0.00 0.00 0.00 0.00 0.00 0.00 0.00 0.00 0.00 0.00 0.00 0.00 0.00 0.00 0.00 0.00 0.00 0.00 0.00 0.00
0.00 0.00 0.00 0.00 0.00 0.00 0.00 0.00 0.00 0.00 0.00 0.00 0.00 0.00 0.00 0.00 0.00 0.00 0.00 0.00 0.00 0.00 0.00 0.00 0.00 0.00 0.00 0.00 0.00 0.00 0.00 0.00 0.00 0.00 0.00 0.00 0.00 0.00 0.00 0.00 0.00 0.00 0.00
0.00 0.00 0.00 0.00 0.00 0.00 0.00 0.00 0.00 0.00 0.00 0.00 0.00 0.00 0.00 0.00 0.00 0.00 0.00 0.00 0.00 0.00 0.00 0.00 0.00 0.00 0.00 0.00 0.00 0.00 0.00 0.00 0.00 0.00 0.00 0.00 0.00 0.00 0.00 0.00 0.00 0.00 0.00
0.00 0.00 0.00 0.00 0.00 0.00 0.00 0.00 0.00 0.00 0.00 0.00 0.00 0.00 0.00 0.00 0.00 0.00 0.00 0.00 0.00 0.00 0.00 0.00 0.00 0.00 0.00 0.00 0.00 0.00 0.00 0.00 0.00 0.00 0.00 0.00 0.00 0.00 0.00 0.00 0.00 0.00 0.00
0.00 0.00 0.00 0.00 0.00 0.00 0.00 0.00 0.00 0.00 0.00 0.00 0.00 0.00 0.00 0.00 0.00 0.00 0.00 0.00 0.00 0.00 0.00 0.00 0.00 0.00 0.00 0.00 0.00 0.00 0.00 0.00 0.00 0.00 0.00 0.00 0.00 0.00 0.00 0.00 0.00 0.00 0.00
0.00 0.00 0.00 0.00 0.00 0.00 0.00 0.00 0.00 0.00 0.00 0.00 0.00 0.00 0.00 0.00 0.00 0.00 0.00 0.00 0.00 0.00 0.00 0.00 0.00 0.00 0.00 0.00 0.00 0.00 0.00 0.00 0.00 0.00 0.00 0.00 0.00 0.00 0.00 0.00 0.00 0.00 0.00
0.00 0.00 0.00 0.00 0.00 0.00 0.00 0.00 0.00 0.00 0.00 0.00 0.00 0.00 0.00 0.00 0.00 0.00 0.00 0.00 0.00 0.00 0.00 0.00 0.00 0.00 0.00 0.00 0.00 0.00 0.00 0.00 0.00 0.00 0.00 0.00 0.00 0.00 0.00 0.00 0.00 0.00 0.00
MSLP
1014.92 1015.43 1015.89 1016.41 1016.92 1017.31 1017.70 1017.98 1018.48 1019.36 1019.49 1019.86 1019.14 1019.06 1018.88 1018.59 1018.60 1018.94 1019.28 1019.46 1019.53 1019.54 1019.60 1019.70 1019.84 1020.01 1020.06 1019.97 1019.77 1019.65 1019.56 1019.43 1019.62 1019.16 1018.70 1018.30 1018.01 1017.69 1017.16 1016.78 1016.52 1016.09 1015.57
1014.60 1015.14 1015.52 1015.94 1016.28 1016.74 1017.24 1017.80 1018.07 1018.66 1018.84 1019.06 1019.00 1018.85 1018.74 1018.71 1018.97 1019.07 1019.13 1019.18 1019.30 1019.18 1019.31 1019.37 1019.48 1019.56 1019.82 1020.07 1020.26 1020.19 1019.72 1019.60 1019.84 1019.79 1019.36 1018.77 1018.10 1017.43 1016.94 1016.79 1016.33 1015.90 1015.46
1014.75 1015.13 1015.38 1015.90 1016.03 1016.38 1016.82 1017.20 1017.56 1017.85 1018.03 1018.02 1018.47 1018.59 1018.74 1018.82 1018.96 1019.13 1018.96 1018.87 1018.88 1018.79 1018.86 1019.10 1019.15 1019.22 1019.48 1019.65 1019.77 1019.78 1019.70 1019.67 1019.68 1019.63 1019.34 1018.78 1018.10 1017.73 1017.27 1017.03 1016.49 1016.00 1015.56
1014.42 1015.24 1015.78 1016.51 1016.20 1016.75 1016.80 1017.04 1017.26 1017.47 1017.86 1018.18 1018.33 1018.50 1018.58 1018.68 1018.93 1018.98 1019.15 1019.40 1019.16 1018.57 1018.44 1018.55 1018.89 1019.22 1019.50 1019.77 1020.00 1020.18 1020.24 1020.22 1019.98 1019.85 1019.56 1019.16 1018.41 1018.13 1017.80 1017.60 1017.29 1016.95 1016.68
1015.49 1016.11 1016.24 1016.62 1016.77 1016.94 1017.43 1017.06 1017.14 1017.47 1017.59 1018.01 1018.39 1018.39 1018.60 1019.28 1019.78 1019.90 1020.36 1019.85 1019.95 1020.08 1019.29 1018.94 1019.06 1019.51 1019.83 1020.15 1020.46 1020.44 1020.55 1020.55 1020.48 1020.20 1019.79 1019.22 1018.83 1018.56 1018.62 1018.52 1018.31 1017.79 1017.20
1015.97 1016.21 1016.55 1016.76 1017.02 1017.45 1017.87 1017.66 1017.56 1017.62 1017.88 1018.07 1018.41 1018.84 1019.60 1020.43 1020.62 1020.80 1021.20 1020.64 1020.79 1018.58 1019.35 1019.80 1019.51 1020.19 1020.53 1020.38 1020.50 1020.51 1021.00 1021.00 1020.86 1020.71 1020.34 1020.02 1019.66 1019.58 1019.27 1019.28 1018.90 1018.45 1017.72
1016.23 1016.42 1016.95 1017.20 1017.62 1017.87 1018.15 1018.25 1017.74 1017.97 1018.28 1018.66 1019.26 1019.77 1020.59 1021.18 1021.04 1020.34 1019.85 1019.79 1019.95 1020.18 1020.38 1020.01 1019.96 1020.83 1021.18 1021.30 1020.90 1020.47 1020.42 1020.50 1020.98 1021.01 1020.61 1020.30 1020.12 1019.78 1019.60 1019.27 1019.12 1018.84 1018.35
1016.24 1016.86 1017.40 1017.97 1018.47 1018.70 1018.81 1018.95 1018.81 1018.92 1019.30 1019.77 1020.11 1020.63 1021.29 1021.78 1021.45 1020.62 1020.03 1019.60 1019.58 1020.00 1020.25 1020.30 1020.98 1022.00 1022.32 1022.04 1021.64 1021.09 1020.80 1020.51 1020.49 1020.62 1020.50 1020.19 1019.80 1019.44 1019.53 1019.46 1019.16 1018.87 1018.27
1016.95 1017.37 1017.85 1018.13 1018.60 1018.94 1019.14 1019.04 1019.31 1019.98 1020.16 1020.91 1021.16 1021.68 1022.08 1022.53 1022.22 1021.22 1020.56 1020.23 1020.51 1021.12 1021.50 1021.68 1022.03 1022.70 1023.10 1022.87 1022.28 1021.90 1021.51 1021.04 1020.50 1020.36 1020.06 1019.94 1019.63 1019.72 1019.64 1019.69 1019.36 1019.01 1018.57
1018.06 1018.47 1018.52 1018.61 1018.82 1019.00 1019.12 1019.69 1020.06 1020.32 1020.97 1021.43 1022.10 1022.32 1022.79 1022.75 1022.92 1022.14 1021.56 1021.25 1021.38 1021.78 1022.29 1022.72 1023.19 1023.32 1023.58 1023.56 1023.23 1022.87 1022.52 1021.97 1021.49 1020.68 1019.84 1019.62 1019.17 1019.50 1019.76 1019.53 1019.58 1019.45 1019.00
1019.06 1019.01 1019.25 1019.13 1019.40 1019.57 1019.78 1020.13 1020.46 1020.78 1021.52 1021.96 1022.60 1023.06 1023.31 1023.38 1023.50 1023.35 1022.90 1022.58 1022.55 1022.55 1022.82 1023.22 1023.39 1023.51 1023.66 1023.85 1023.68 1023.36 1023.06 1022.77 1021.66 1021.05 1020.29 1019.78 1019.58 1019.63 1019.86 1019.90 1019.66 1019.51 1019.37
1019.53 1019.66 1019.73 1019.61 1019.78 1020.18 1020.40 1020.75 1021.11 1021.46 1021.96 1022.49 1022.89 1023.05 1023.42 1023.50 1023.88 1023.96 1023.79 1023.82 1023.32 1023.06 1023.51 1023.56 1023.49 1023.84 1023.48 1023.75 1023.57 1023.17 1022.91 1022.51 1021.86 1021.34 1021.09 1021.07 1020.83 1020.63 1020.53 1020.20 1019.96 1019.74 1019.58
1019.87 1020.19 1020.30 1020.20 1020.49 1020.84 1020.87 1021.12 1021.95 1021.94 1022.13 1022.52 1022.82 1022.87 1023.29 1023.72 1023.76 1023.99 1023.87 1024.08 1024.25 1023.91 1023.74 1023.81 1023.49 1023.82 1023.70 1023.42 1023.55 1022.89 1022.56 1022.71 1022.52 1022.29 1022.29 1022.10 1021.66 1021.25 1020.92 1020.90 1020.71 1020.42 1020.11
1020.47 1020.73 1020.63 1020.78 1021.78 1022.02 1022.05 1021.67 1022.50 1022.97 1022.66 1022.34 1022.50 1022.78 1023.54 1024.04 1024.60 1024.39 1024.32 1024.19 1024.16 1024.05 1024.10 1023.35 1023.49 1023.54 1023.74 1023.93 1023.57 1023.41 1023.79 1023.68 1023.77 1023.78 1023.51 1023.17 1022.61 1022.24 1022.07 1021.97 1021.68 1021.34 1020.72
1020.68 1020.79 1021.03 1021.47 1022.22 1022.95 1023.68 1023.93 1024.18 1024.95 1024.71 1023.73 1023.73 1023.98 1024.46 1025.10 1026.16 1026.42 1026.69 1026.12 1025.82 1025.36 1025.15 1024.18 1024.00 1024.15 1024.24 1024.40 1024.40 1024.43 1024.57 1024.74 1024.80 1024.57 1024.46 1024.14 1023.78 1023.38 1023.19 1023.02 1022.67 1022.14 1021.82
1020.58 1020.72 1021.19 1021.68 1022.22 1022.64 1023.57 1024.92 1025.86 1025.83 1025.44 1025.14 1024.71 1024.83 1025.75 1026.19 1026.21 1026.40 1026.61 1026.47 1026.11 1025.78 1025.08 1024.81 1024.96 1025.06 1025.09 1025.19 1025.31 1025.27 1025.28 1025.55 1025.51 1025.56 1025.33 1025.10 1024.90 1024.62 1024.29 1023.83 1023.58 1023.56 1022.97
1020.33 1020.45 1020.73 1021.14 1021.69 1022.49 1023.18 1023.99 1025.06 1026.18 1025.97 1025.91 1025.82 1025.94 1026.08 1026.40 1026.32 1026.31 1026.37 1026.25 1025.61 1025.61 1025.26 1025.17 1025.31 1025.19 1025.41 1025.82 1025.82 1025.84 1026.03 1026.14 1026.29 1026.21 1025.90 1025.60 1025.32 1025.15 1024.94 1024.70 1024.61 1024.29 1024.07
1020.46 1020.52 1020.48 1020.43 1020.88 1021.84 1022.52 1022.98 1024.06 1024.66 1025.22 1026.11 1026.56 1026.36 1026.60 1026.54 1026.52 1026.45 1026.48 1026.46 1025.38 1025.32 1025.12 1025.48 1025.58 1025.68 1025.86 1026.34 1026.58 1026.55 1026.72 1026.60 1026.64 1026.65 1026.32 1026.25 1026.13 1026.03 1025.72 1025.72 1025.23 1024.96 1024.84
1020.88 1020.61 1020.33 1020.63 1021.07 1021.55 1021.56 1021.75 1022.40 1022.82 1023.75 1025.09 1026.30 1026.97 1026.80 1026.73 1026.70 1026.49 1026.21 1025.80 1025.46 1025.44 1025.26 1025.49 1026.15 1026.31 1026.48 1026.79 1027.05 1027.14 1027.04 1027.06 1027.06 1027.01 1026.97 1026.98 1026.92 1026.96 1026.66 1026.12 1025.77 1025.80 1025.33
1021.36 1021.24 1021.24 1021.16 1021.72 1021.70 1021.39 1021.12 1021.43 1022.23 1022.94 1023.67 1024.38 1024.95 1025.76 1026.16 1026.21 1025.74 1025.80 1025.64 1025.34 1025.41 1025.61 1026.02 1026.77 1027.00 1027.06 1027.11 1027.05 1027.36 1027.44 1027.27 1027.40 1027.42 1027.48 1027.56 1027.47 1027.55 1027.33 1026.95 1026.73 1026.27 1025.71
1021.45 1021.48 1021.24 1021.40 1021.81 1021.80 1021.75 1021.68 1021.65 1021.98 1022.32 1022.92 1023.77 1024.55 1025.12 1025.51 1024.70 1025.05 1025.26 1025.42 1025.30 1025.63 1026.26 1026.89 1027.13 1027.05 1026.94 1027.21 1027.63 1027.80 1027.64 1027.52 1027.67 1027.82 1028.06 1028.27 1028.28 1028.15 1027.93 1027.47 1027.06 1026.55 1026.02
1020.78 1021.18 1021.75 1021.62 1021.64 1021.59 1021.66 1021.78 1021.97 1022.12 1022.27 1022.79 1023.82 1024.48 1024.96 1024.99 1024.57 1024.60 1025.08 1025.28 1025.36 1025.98 1026.40 1027.04 1026.92 1027.03 1027.31 1027.66 1027.94 1028.06 1027.90 1027.96 1028.18 1028.59 1028.84 1028.88 1028.77 1028.61 1028.20 1027.74 1027.52 1027.17 1026.57
1020.50 1020.79 1021.16 1021.33 1021.31 1021.22 1021.54 1021.85 1021.83 1022.13 1022.32 1022.33 1022.83 1023.75 1024.27 1024.28 1024.23 1024.33 1024.83 1025.09 1025.25 1025.50 1025.95 1026.61 1026.63 1026.81 1026.96 1027.27 1027.59 1027.76 1027.83 1028.06 1028.39 1028.92 1029.19 1029.00 1028.79 1028.56 1028.46 1028.29 1027.98 1027.54 1027.08
1020.25 1020.30 1020.44 1020.81 1021.10 1021.16 1021.46 1021.70 1021.82 1021.90 1021.90 1022.10 1022.36 1023.12 1023.43 1023.53 1023.82 1024.11 1024.35 1024.56 1024.96 1025.33 1025.59 1025.93 1026.24 1026.55 1026.94 1027.04 1027.08 1027.17 1027.40 1027.85 1028.32 1028.64 1028.88 1029.04 1028.85 1028.68 1028.36 1028.06 1027.71 1027.35 1026.66
1019.90 1019.91 1020.18 1020.32 1020.46 1020.84 1021.18 1021.26 1021.44 1021.64 1021.63 1021.95 1022.16 1022.18 1022.54 1022.98 1023.32 1023.60 1023.99 1024.22 1024.62 1025.06 1025.28 1025.49 1025.66 1025.90 1026.36 1026.70 1027.06 1027.44 1028.16 1028.29 1028.49 1028.91 1028.93 1028.69 1028.44 1028.10 1027.70 1027.39 1027.20 1026.59 1025.95
1019.89 1020.15 1020.28 1020.27 1020.31 1020.32 1020.40 1020.81 1020.96 1021.22 1021.39 1021.48 1021.74 1022.06 1022.26 1022.31 1022.55 1022.84 1023.05 1023.38 1023.79 1024.31 1024.61 1024.90 1025.03 1025.22 1025.80 1026.15 1026.71 1027.32 1027.65 1027.80 1027.95 1028.28 1028.59 1028.51 1028.10 1027.45 1027.05 1026.75 1026.30 1025.77 1025.16
Thickness
5796 5794 5793 5791 5788 5785 5784 5786 5781 5771 5771 5769 5776 5779 5785 5790 5790 5788 5787 5786 5785 5786 5786 5786 5785 5786 5785 5787 5789 5789 5789 5791 5781 5789 5797 5800 5803 5805 5807 5809 5811 5814 5815
5794 5792 5792 5792 5792 5788 5783 5781 5785 5777 5774 5775 5779 5783 5786 5788 5786 5786 5786 5786 5785 5786 5787 5787 5787 5789 5786 5785 5783 5782 5786 5788 5782 5776 5787 5794 5799 5806 5808 5808 5810 5812 5815
5784 5787 5789 5789 5788 5789 5787 5785 5784 5785 5785 5787 5785 5784 5784 5785 5784 5783 5786 5786 5786 5788 5788 5786 5786 5788 5786 5785 5785 5784 5785 5786 5785 5782 5783 5792 5796 5801 5802 5804 5807 5810 5812
5783 5780 5780 5774 5781 5779 5783 5783 5784 5783 5780 5779 5781 5783 5785 5785 5784 5784 5782 5780 5781 5790 5790 5790 5788 5786 5783 5781 5780 5778 5778 5777 5779 5778 5779 5783 5789 5794 5796 5793 5793 5799 5799
5769 5766 5769 5770 5771 5772 5770 5777 5779 5779 5781 5779 5778 5781 5782 5778 5770 5767 5760 5766 5770 5766 5777 5783 5785 5780 5777 5776 5775 5774 5773 5772 5771 5772 5773 5778 5781 5782 5780 5783 5782 5787 5791
5758 5759 5761 5764 5764 5761 5762 5766 5768 5770 5771 5772 5772 5772 5770 5762 5760 5757 5750 5759 5757 5740 5765 5768 5776 5768 5769 5768 5768 5767 5766 5765 5765 5764 5765 5766 5769 5771 5774 5773 5774 5775 5774
5751 5753 5749 5751 5752 5752 5751 5752 5756 5758 5760 5759 5759 5757 5752 5748 5749 5756 5763 5766 5760 5759 5758 5763 5767 5758 5757 5756 5758 5761 5765 5764 5762 5761 5758 5760 5762 5766 5768 5768 5769 5769 5770
5746 5743 5740 5737 5736 5738 5739 5740 5744 5744 5743 5744 5742 5740 5738 5738 5740 5747 5755 5762 5764 5760 5757 5758 5753 5745 5742 5744 5749 5753 5755 5757 5758 5756 5755 5758 5762 5765 5764 5764 5765 5767 5771
5734 5734 5731 5731 5728 5729 5729 5733 5733 5729 5730 5726 5725 5723 5723 5722 5727 5736 5744 5748 5745 5738 5736 5737 5736 5732 5731 5734 5741 5740 5741 5743 5746 5748 5751 5753 5756 5756 5759 5756 5755 5756 5757
5716 5719 5720 5723 5723 5723 5726 5722 5721 5720 5713 5711 5708 5709 5707 5710 5710 5719 5728 5730 5727 5726 5725 5722 5719 5717 5717 5718 5723 5725 5725 5728 5731 5737 5743 5746 5750 5746 5749 5746 5746 5743 5746
5706 5709 5710 5713 5712 5712 5713 5711 5710 5707 5701 5699 5694 5693 5693 5695 5695 5699 5706 5709 5707 5708 5709 5708 5704 5708 5708 5707 5708 5711 5712 5714 5723 5727 5731 5735 5738 5733 5737 5733 5736 5737 5733
5697 5698 5700 5702 5703 5703 5701 5700 5699 5697 5692 5688 5686 5686 5685 5686 5685 5685 5689 5688 5691 5694 5693 5694 5694 5697 5700 5697 5696 5699 5701 5707 5712 5714 5715 5714 5715 5717 5717 5719 5722 5724 5723
5687 5687 5687 5691 5691 5691 5691 5692 5687 5689 5687 5684 5682 5684 5681 5679 5679 5677 5678 5678 5676 5681 5685 5685 5689 5688 5689 5690 5687 5692 5694 5692 5694 5695 5694 5696 5699 5703 5704 5704 5702 5704 5707
5672 5674 5677 5678 5672 5671 5673 5682 5677 5675 5682 5687 5685 5684 5677 5672 5668 5670 5669 5667 5668 5670 5673 5680 5677 5679 5678 5677 5679 5680 5675 5676 5674 5674 5677 5679 5684 5686 5687 5687 5688 5689 5692
5659 5662 5663 5663 5658 5654 5650 5651 5655 5650 5654 5667 5666 5663 5664 5658 5650 5649 5648 5652 5654 5658 5660 5666 5664 5663 5663 5661 5662 5663 5661 5659 5658 5660 5659 5661 5663 5666 5667 5666 5669 5673 5673
5647 5648 5648 5647 5646 5646 5642 5635 5631 5634 5639 5644 5649 5649 5642 5640 5640 5640 5639 5641 5645 5648 5653 5651 5646 5645 5645 5645 5643 5643 5644 5641 5641 5639 5640 5641 5642 5643 5645 5647 5648 5645 5651
5636 5640 5640 5641 5641 5635 5633 5631 5627 5620 5622 5625 5627 5627 5629 5629 5629 5630 5631 5632 5635 5636 5639 5637 5634 5634 5632 5628 5628 5627 5624 5623 5620 5620 5621 5623 5625 5625 5625 5626 5624 5625 5625
5623 5624 5628 5633 5631 5626 5623 5624 5620 5619 5617 5612 5609 5611 5611 5612 5614 5616 5616 5616 5625 5623 5625 5620 5619 5618 5616 5611 5607 5607 5604 5605 5603 5601 5602 5601 5601 5600 5601 5599 5602 5604 5604
5604 5610 5616 5615 5614 5611 5616 5618 5617 5618 5613 5603 5595 5592 5594 5596 5597 5601 5604 5608 5608 5606 5607 5605 5600 5598 5595 5593 5589 5587 5587 5585 5584 5583 5582 5580 5578 5575 5576 5580 5580 5577 5578
5588 5589 5592 5597 5592 5595 5600 5604 5605 5603 5602 5597 5595 5591 5583 5581 5583 5587 5587 5588 5590 5589 5586 5583 5576 5574 5573 5572 5573 5570 5568 5568 5565 5563 5561 5557 5556 5553 5553 5553 5553 5555 5556
5573 5574 5579 5580 5575 5578 5580 5582 5585 5584 5584 5582 5578 5567 5565 5567 5577 5573 5572 5570 5571 5568 5562 5557 5556 5557 5557 5554 5549 5547 5547 5546 5544 5540 5536 5531 5528 5527 5525 5526 5527 5528 5530
5567 5565 5560 5563 5564 5567 5568 5568 5568 5569 5569 5567 5562 5552 5549 5552 5558 5557 5553 5552 5552 5546 5544 5539 5541 5539 5536 5533 5529 5526 5525 5523 5519 5514 5508 5505 5503 5501 5501 5501 5499 5498 5499
5558 5556 5553 5552 5554 5557 5555 5554 5555 5552 5551 5553 5553 5546 5541 5543 5545 5544 5539 5537 5537 5536 5532 5524 5524 5521 5519 5515 5511 5508 5505 5501 5496 5489 5484 5482 5481 5479 5475 5472 5469 5468 5467
5548 5548 5548 5546 5545 5545 5543 5540 5540 5541 5542 5541 5540 5536 5536 5535 5532 5530 5528 5525 5521 5517 5515 5512 5509 5505 5500 5498 5495 5493 5488 5483 5478 5472 5466 5462 5460 5455 5453 5450 5447 5444 5442
5537 5538 5537 5538 5538 5534 5533 5532 5530 5530 5531 5528 5528 5529 5526 5522 5519 5516 5514 5511 5507 5502 5500 5499 5497 5494 5488 5484 5478 5475 5470 5464 5458 5452 5445 5442 5439 5436 5435 5432 5426 5425 5423
5525 5522 5522 5524 5525 5526 5526 5521 5521 5519 5518 5518 5517 5514 5511 5512 5510 5507 5504 5501 5497 5492 5488 5486 5484 5483 5476 5472 5464 5459 5456 5450 5444 5438 5430 5426 5423 5421 5417 5414 5411 5409 5407